Lid_Strength_Index
1 1 1 3 11 12 13 11 8 9 8 6 5 7 8 7 9 12 2 0 0 0 -0 -1 -2 -1 -1 -1 -1 -1 -1 -1 -2 -2 -2 -2 -1 -2 -2 -2 -2 -2 -2 -2 -2 -2 -2 -2 -2
4 3 2 6 13 15 14 9 11 8 7 5 5 6 7 9 5 4 3 0 -0 -0 0 -0 -2 -2 -1 -1 -1 -1 -1 -1 -1 -1 -2 -2 -1 -2 -2 -2 -2 -2 -2 -2 -2 -2 -2 -2 -2
3 1 6 10 13 15 13 10 9 7 6 6 7 5 6 8 4 3 1 0 -0 1 0 -0 -2 -1 -1 -1 -1 -1 -1 -1 -1 -2 -1 -1 -1 -2 -2 -2 -1 -2 -2 -1 -2 -2 -2 -1 -2
4 4 6 12 13 11 9 9 7 7 6 5 6 8 5 2 3 2 0 -0 1 0 0 -1 -2 -1 -1 -1 -1 -1 -1 -1 -1 -1 -2 -2 -2 -2 -2 -2 -1 -1 -1 -1 -2 -2 -1 -1 -1
5 6 12 13 13 9 8 7 7 8 7 7 6 8 7 3 1 1 1 0 1 0 -0 -0 -2 -2 -1 -1 -1 -1 -1 -1 -1 -2 -2 -2 -2 -2 -2 -1 -1 -1 -1 -1 -1 -2 -1 -1 -2
7 7 13 14 12 8 7 6 6 7 7 7 7 7 7 2 2 1 0 0 -0 0 -0 -0 -1 -1 -1 -1 -1 -1 -2 -1 -1 -2 -1 -2 -1 -1 -2 -2 -1 -1 -1 -1 -1 -1 -1 -1 -2
8 10 13 13 11 9 8 5 7 8 7 7 5 9 6 4 2 1 1 0 0 -0 0 0 -0 -1 -2 -1 -1 -1 -1 -1 -1 -1 -2 -1 -2 -2 -2 -2 -2 -1 -1 -1 -1 -1 -1 -1 -1
7 9 12 12 11 10 7 6 5 7 7 4 4 8 8 4 1 1 1 1 0 0 0 0 0 0 0 -0 -1 -2 -2 -2 -2 -1 -2 -2 -2 -2 -1 -2 -2 -1 -1 -1 -1 -1 -1 -1 -1
4 11 14 12 10 9 6 7 5 4 6 5 4 5 4 2 1 2 2 2 1 1 1 1 1 0 0 0 -1 -1 -2 -2 -2 -1 -2 -1 -0 -0 -1 -1 -2 -1 -1 -1 -1 -1 -1 -1 -1
8 12 12 9 8 9 7 7 6 7 7 6 5 4 3 2 3 3 3 3 2 2 1 1 1 0 0 -0 0 0 -0 -0 -0 0 0 0 0 -0 -1 -1 -1 -1 -1 -1 -1 -1 -1 -1 -0
8 12 9 8 7 7 7 7 5 7 8 6 6 5 4 3 3 3 3 3 2 2 1 1 1 0 1 0 0 0 -0 -0 -0 0 0 0 -0 0 0 1 0 2 1 3 1 1 -1 0 1
10 8 8 7 6 7 8 6 7 7 6 4 4 4 3 4 4 3 3 3 2 2 1 1 1 1 0 0 0 0 0 1 0 0 0 1 1 0 2 2 2 2 1 2 2 1 -0 -0 -0
9 8 7 7 7 7 6 8 7 7 4 4 3 3 4 4 3 3 2 2 2 2 2 1 1 1 0 0 1 0 0 3 1 -0 0 -1 1 0 2 0 1 1 0 -0 0 1 0 0 0
7 7 8 7 7 7 8 8 7 6 4 4 4 4 4 4 3 3 3 3 2 2 1 1 0 0 1 1 1 0 1 1 0 0 0 -0 -0 0 1 2 1 1 0 0 0 0 2 2 1
7 10 9 8 8 9 7 9 9 5 4 5 5 4 4 3 3 3 3 2 2 1 1 1 1 0 0 1 1 1 0 -0 0 1 0 0 0 0 1 1 1 1 -0 0 0 0 1 1 0
9 10 13 9 8 8 8 13 8 5 5 6 5 4 4 4 3 3 2 2 2 1 1 1 0 1 1 0 1 1 1 0 0 1 0 -0 -0 0 1 2 1 -2 0 -0 0 1 1 1 1
10 15 13 12 8 9 10 12 8 5 6 6 6 5 4 4 3 3 2 2 1 1 1 2 1 1 1 0 0 -0 -0 1 0 0 0 0 -0 -0 0 1 1 -0 -0 1 2 2 2 2 2
15 13 13 13 10 10 11 11 8 7 6 6 6 5 5 5 4 3 2 2 1 1 1 1 1 1 1 1 1 1 0 0 0 0 0 0 -0 -0 0 0 1 2 0 1 1 1 1 2 2
11 13 14 12 9 11 12 11 10 8 7 7 7 6 5 5 3 3 2 2 2 1 1 1 2 2 2 1 1 2 2 1 1 0 0 -0 0 -0 0 0 0 1 1 1 1 1 1 1 1
11 13 14 11 10 10 12 12 9 8 8 7 7 6 5 5 4 3 3 2 2 2 2 1 1 1 1 1 1 1 1 1 1 0 0 0 0 0 -0 0 0 0 1 2 2 1 2 2 3
12 13 13 13 11 10 12 13 11 9 8 7 6 6 5 5 5 4 3 3 2 2 2 1 1 1 1 1 1 1 1 1 1 1 1 1 -0 0 -0 1 0 1 2 5 3 1 2 3 2
15 10 11 12 13 17 11 19 13 11 10 8 7 7 6 5 4 4 3 3 3 2 1 1 1 1 1 1 1 2 2 3 2 2 1 1 1 0 0 1 0 2 4 2 2 1 1 2 3
13 9 11 11 14 14 14 16 14 11 12 10 8 7 6 5 4 4 4 3 2 2 2 1 1 1 1 1 1 1 2 2 1 1 1 2 1 0 -0 2 0 2 1 1 1 1 1 1 2
8 10 11 12 14 19 15 16 16 14 12 10 8 7 6 5 4 4 3 3 2 2 2 1 1 1 1 1 1 1 2 2 2 2 2 1 1 1 1 0 1 0 2 2 2 1 1 1 1
10 14 19 19 19 20 14 16 15 11 9 8 8 7 6 5 5 4 4 3 3 3 2 2 2 2 1 1 1 1 1 2 2 2 2 1 1 2 2 1 1 2 2 3 0 1 2 1 1
12 13 17 21 21 19 14 18 14 9 7 7 6 6 6 5 5 4 4 3 3 3 2 2 2 2 2 2 2 1 1 1 1 1 1 1 2 2 1 0 1 1 0 1 0 1 1 1 2
12 14 11 16 17 18 16 14 11 8 9 8 7 6 6 6 5 5 4 3 3 3 2 2 2 2 2 1 1 1 1 1 1 1 2 1 0 0 1 0 2 2 1 1 1 1 2 1 2
10 9 14 15 21 22 18 17 16 12 10 9 8 7 6 6 5 5 4 4 3 3 3 2 2 2 1 1 1 2 1 1 1 1 1 1 0 0 0 1 2 2 2 1 1 1 1 1 2
11 12 13 12 15 19 21 18 11 10 9 9 8 7 6 6 5 5 4 3 3 2 2 3 2 2 2 1 1 1 1 1 1 2 1 2 2 2 1 2 1 1 1 1 1 1 1 1 1
10 12 13 15 15 15 15 17 8 8 8 8 8 7 6 5 5 4 4 4 3 3 2 2 3 2 2 2 1 1 1 1 1 2 1 2 2 3 3 2 1 1 1 1 1 1 1 1 2